QPF
0.00 0.00 0.00 0.00 0.00 0.00 0.00 0.00 0.00 0.00 0.00 0.00 0.00 0.00 0.00 0.00 0.00 0.00 0.00 0.00 0.00 0.00 0.00 0.00 0.00 0.00 0.00 0.00 0.00 0.00 0.00 0.00 0.00 0.00 0.00 0.00 0.00 0.00 0.00 0.00 0.00 0.00 0.00 0.00
0.00 0.00 0.00 0.00 0.00 0.00 0.00 0.00 0.00 0.00 0.00 0.00 0.00 0.00 0.00 0.00 0.00 0.00 0.00 0.00 0.00 0.00 0.00 0.00 0.00 0.00 0.00 0.00 0.00 0.00 0.00 0.00 0.00 0.00 0.00 0.00 0.00 0.00 0.00 0.00 0.00 0.00 0.00 0.00
0.00 0.00 0.00 0.00 0.00 0.00 0.00 0.00 0.00 0.00 0.00 0.00 0.00 0.00 0.00 0.00 0.00 0.00 0.00 0.00 0.00 0.00 0.00 0.00 0.00 0.00 0.00 0.00 0.00 0.00 0.00 0.00 0.00 0.01 0.00 0.00 0.00 0.00 0.01 0.00 0.00 0.00 0.00 0.00
0.00 0.00 0.00 0.00 0.00 0.00 0.00 0.00 0.00 0.00 0.00 0.00 0.00 0.00 0.00 0.00 0.00 0.00 0.00 0.00 0.00 0.00 0.00 0.00 0.00 0.00 0.00 0.00 0.00 0.00 0.00 0.01 0.01 0.01 0.00 0.00 0.00 0.00 0.00 0.01 0.03 0.00 0.00 0.00
0.00 0.00 0.00 0.00 0.00 0.00 0.00 0.00 0.00 0.00 0.00 0.00 0.00 0.00 0.00 0.00 0.00 0.00 0.00 0.00 0.00 0.00 0.00 0.00 0.00 0.00 0.00 0.00 0.00 0.00 0.00 0.00 0.01 0.00 0.00 0.00 0.00 0.00 0.00 0.00 0.00 0.00 0.00 0.00
0.00 0.00 0.00 0.00 0.00 0.00 0.00 0.00 0.00 0.00 0.00 0.00 0.00 0.00 0.00 0.00 0.00 0.00 0.00 0.00 0.00 0.00 0.00 0.00 0.00 0.00 0.00 0.00 0.00 0.00 0.00 0.00 0.00 0.00 0.00 0.00 0.00 0.00 0.00 0.00 0.00 0.00 0.00 0.00
0.00 0.00 0.00 0.00 0.00 0.00 0.00 0.00 0.00 0.00 0.00 0.00 0.00 0.00 0.00 0.00 0.00 0.00 0.00 0.00 0.00 0.00 0.00 0.00 0.00 0.00 0.00 0.00 0.00 0.00 0.00 0.00 0.00 0.00 0.00 0.00 0.00 0.00 0.00 0.00 0.00 0.00 0.00 0.00
0.00 0.00 0.00 0.00 0.00 0.00 0.00 0.00 0.00 0.00 0.00 0.00 0.00 0.00 0.00 0.00 0.00 0.00 0.00 0.00 0.00 0.00 0.00 0.00 0.00 0.00 0.00 0.00 0.00 0.00 0.00 0.00 0.00 0.00 0.00 0.00 0.00 0.00 0.00 0.00 0.00 0.00 0.00 0.00
0.00 0.00 0.00 0.00 0.00 0.00 0.00 0.00 0.00 0.00 0.00 0.00 0.00 0.00 0.00 0.00 0.00 0.00 0.00 0.00 0.00 0.00 0.00 0.00 0.00 0.00 0.00 0.00 0.00 0.00 0.00 0.00 0.00 0.00 0.00 0.00 0.00 0.00 0.00 0.00 0.00 0.00 0.00 0.00
0.00 0.00 0.00 0.00 0.00 0.00 0.00 0.00 0.00 0.00 0.00 0.00 0.00 0.00 0.00 0.00 0.00 0.00 0.00 0.00 0.00 0.00 0.00 0.00 0.00 0.00 0.00 0.00 0.00 0.00 0.00 0.00 0.00 0.00 0.00 0.00 0.00 0.00 0.00 0.00 0.00 0.00 0.00 0.00
0.00 0.00 0.00 0.00 0.00 0.00 0.00 0.00 0.00 0.00 0.00 0.00 0.00 0.00 0.00 0.00 0.00 0.00 0.00 0.00 0.00 0.00 0.00 0.00 0.00 0.00 0.00 0.00 0.00 0.00 0.00 0.00 0.00 0.00 0.00 0.00 0.00 0.00 0.00 0.00 0.00 0.00 0.00 0.00
0.00 0.00 0.00 0.00 0.00 0.00 0.00 0.00 0.00 0.00 0.00 0.00 0.00 0.00 0.00 0.00 0.00 0.00 0.00 0.00 0.00 0.00 0.00 0.00 0.00 0.00 0.00 0.00 0.00 0.00 0.00 0.00 0.00 0.00 0.00 0.00 0.00 0.00 0.00 0.00 0.00 0.00 0.00 0.00
0.00 0.00 0.00 0.00 0.00 0.00 0.00 0.00 0.00 0.00 0.00 0.00 0.00 0.00 0.00 0.00 0.00 0.00 0.00 0.00 0.00 0.00 0.00 0.00 0.00 0.00 0.00 0.00 0.00 0.00 0.00 0.00 0.00 0.00 0.00 0.00 0.00 0.00 0.00 0.00 0.00 0.00 0.00 0.00
0.00 0.00 0.00 0.00 0.00 0.00 0.00 0.00 0.00 0.00 0.00 0.00 0.00 0.00 0.00 0.00 0.00 0.00 0.00 0.00 0.00 0.00 0.00 0.00 0.00 0.00 0.00 0.00 0.00 0.00 0.00 0.00 0.00 0.00 0.00 0.00 0.00 0.00 0.00 0.00 0.00 0.00 0.00 0.00
0.00 0.00 0.00 0.00 0.00 0.00 0.00 0.00 0.00 0.00 0.00 0.00 0.00 0.00 0.00 0.00 0.00 0.00 0.00 0.00 0.00 0.00 0.00 0.00 0.00 0.00 0.00 0.00 0.00 0.00 0.00 0.00 0.00 0.00 0.00 0.00 0.00 0.00 0.00 0.00 0.00 0.00 0.00 0.00
0.00 0.00 0.00 0.00 0.00 0.00 0.00 0.00 0.00 0.00 0.00 0.00 0.00 0.00 0.00 0.00 0.00 0.00 0.00 0.00 0.00 0.00 0.00 0.00 0.00 0.00 0.00 0.00 0.00 0.00 0.00 0.00 0.00 0.00 0.00 0.00 0.00 0.00 0.00 0.00 0.00 0.00 0.00 0.00
0.00 0.00 0.00 0.00 0.00 0.00 0.00 0.00 0.00 0.00 0.00 0.00 0.00 0.00 0.00 0.00 0.00 0.00 0.00 0.00 0.00 0.00 0.00 0.00 0.00 0.00 0.00 0.00 0.00 0.00 0.00 0.00 0.00 0.00 0.00 0.00 0.00 0.00 0.00 0.00 0.00 0.00 0.00 0.00
0.00 0.00 0.00 0.00 0.00 0.00 0.00 0.00 0.00 0.00 0.00 0.00 0.00 0.00 0.00 0.00 0.00 0.00 0.00 0.00 0.00 0.00 0.00 0.00 0.00 0.00 0.00 0.00 0.00 0.00 0.00 0.00 0.00 0.00 0.00 0.00 0.00 0.00 0.00 0.00 0.00 0.00 0.00 0.00
0.00 0.00 0.00 0.00 0.00 0.00 0.00 0.00 0.00 0.00 0.00 0.00 0.00 0.00 0.00 0.00 0.00 0.00 0.00 0.00 0.00 0.00 0.00 0.00 0.00 0.00 0.00 0.00 0.00 0.00 0.00 0.00 0.00 0.00 0.00 0.00 0.00 0.00 0.00 0.00 0.00 0.00 0.00 0.00
0.00 0.00 0.00 0.00 0.00 0.00 0.00 0.00 0.00 0.00 0.00 0.00 0.00 0.00 0.00 0.00 0.00 0.00 0.00 0.00 0.00 0.00 0.00 0.00 0.00 0.00 0.00 0.00 0.00 0.00 0.00 0.00 0.00 0.00 0.00 0.00 0.00 0.00 0.00 0.00 0.00 0.00 0.00 0.00
0.00 0.00 0.00 0.00 0.00 0.00 0.00 0.00 0.00 0.00 0.00 0.00 0.00 0.00 0.00 0.00 0.00 0.00 0.00 0.00 0.00 0.00 0.00 0.00 0.00 0.00 0.00 0.00 0.00 0.00 0.00 0.00 0.00 0.00 0.00 0.00 0.00 0.00 0.00 0.00 0.00 0.00 0.00 0.00
0.00 0.00 0.00 0.00 0.00 0.00 0.00 0.00 0.00 0.00 0.00 0.00 0.00 0.00 0.00 0.00 0.00 0.00 0.00 0.00 0.00 0.00 0.00 0.00 0.00 0.00 0.00 0.00 0.00 0.00 0.00 0.00 0.00 0.00 0.00 0.00 0.00 0.00 0.00 0.00 0.00 0.00 0.00 0.00
0.00 0.00 0.00 0.00 0.00 0.00 0.00 0.00 0.00 0.00 0.00 0.00 0.00 0.00 0.00 0.00 0.00 0.00 0.00 0.00 0.00 0.00 0.00 0.00 0.00 0.00 0.00 0.00 0.00 0.00 0.00 0.00 0.00 0.00 0.00 0.00 0.00 0.00 0.00 0.00 0.00 0.00 0.00 0.00
0.00 0.00 0.00 0.00 0.00 0.00 0.00 0.00 0.00 0.00 0.00 0.00 0.00 0.00 0.00 0.00 0.00 0.00 0.00 0.00 0.00 0.00 0.00 0.00 0.00 0.00 0.00 0.00 0.00 0.00 0.00 0.00 0.00 0.00 0.00 0.00 0.00 0.00 0.00 0.00 0.00 0.00 0.00 0.00
0.00 0.00 0.00 0.00 0.00 0.00 0.00 0.00 0.00 0.00 0.00 0.00 0.00 0.00 0.00 0.00 0.00 0.00 0.00 0.00 0.00 0.00 0.00 0.00 0.00 0.00 0.00 0.00 0.00 0.00 0.00 0.00 0.00 0.00 0.00 0.00 0.00 0.00 0.00 0.00 0.00 0.00 0.00 0.00
0.00 0.00 0.00 0.00 0.00 0.00 0.00 0.00 0.00 0.00 0.00 0.00 0.00 0.00 0.00 0.00 0.00 0.00 0.00 0.00 0.00 0.00 0.00 0.00 0.00 0.00 0.00 0.00 0.00 0.00 0.00 0.00 0.00 0.00 0.00 0.00 0.00 0.00 0.00 0.00 0.00 0.00 0.00 0.00
MSLP
1015.21 1015.37 1014.99 1014.54 1014.60 1014.91 1015.41 1015.49 1015.13 1014.45 1014.03 1014.46 1014.13 1013.14 1012.81 1012.67 1012.52 1013.18 1014.07 1015.17 1016.08 1016.95 1017.54 1017.98 1018.14 1018.06 1018.15 1017.86 1017.43 1017.02 1016.58 1016.55 1016.31 1015.51 1014.58 1013.77 1013.00 1012.00 1011.07 1010.04 1009.18 1009.13 1009.23 1009.05
1015.48 1014.96 1014.45 1014.75 1014.98 1015.51 1015.82 1015.89 1015.20 1014.38 1014.66 1015.20 1014.38 1013.07 1012.60 1012.51 1012.54 1013.13 1014.22 1015.30 1016.34 1017.27 1017.77 1017.96 1018.03 1017.92 1018.12 1017.87 1017.43 1017.15 1017.02 1016.81 1016.41 1015.59 1014.59 1013.94 1013.12 1011.97 1011.42 1010.43 1009.15 1008.73 1008.75 1008.56
1015.25 1014.55 1014.75 1015.13 1015.45 1015.89 1016.02 1016.17 1015.98 1016.20 1015.86 1015.44 1015.34 1013.29 1012.78 1013.15 1013.06 1013.96 1015.04 1015.84 1016.73 1017.50 1017.79 1017.90 1017.89 1018.02 1018.18 1018.04 1017.69 1017.53 1017.31 1016.86 1016.28 1015.66 1014.67 1013.75 1012.85 1011.57 1010.88 1010.21 1009.14 1008.87 1008.82 1008.92
1015.05 1014.91 1015.21 1015.54 1015.87 1016.20 1016.63 1016.35 1016.72 1017.08 1017.69 1017.32 1016.84 1015.67 1013.53 1013.62 1014.11 1014.82 1015.50 1016.17 1016.85 1017.61 1017.89 1018.13 1018.13 1018.29 1018.45 1018.22 1017.91 1017.71 1017.35 1016.88 1016.28 1015.65 1014.82 1013.81 1012.77 1011.87 1011.13 1010.48 1009.75 1009.53 1009.53 1009.99
1015.19 1015.38 1015.74 1016.10 1016.10 1016.44 1016.58 1016.79 1017.27 1017.65 1018.36 1018.40 1017.41 1017.75 1014.20 1014.23 1014.79 1014.94 1015.37 1016.09 1016.99 1017.74 1018.30 1018.43 1018.44 1018.46 1018.37 1018.12 1017.87 1017.67 1017.33 1016.84 1016.20 1015.58 1014.86 1013.90 1012.80 1012.01 1011.34 1010.64 1009.86 1010.12 1010.18 1011.04
1015.68 1016.03 1016.26 1016.43 1016.62 1016.96 1017.21 1017.28 1017.11 1018.00 1018.58 1018.56 1017.31 1017.67 1015.29 1015.66 1015.72 1015.62 1015.85 1016.74 1017.53 1018.35 1018.53 1018.57 1018.58 1018.69 1018.57 1018.17 1017.87 1017.56 1017.14 1016.71 1016.21 1015.56 1014.79 1014.01 1013.18 1012.37 1011.76 1011.03 1010.68 1010.82 1011.22 1011.63
1015.74 1016.10 1016.74 1017.16 1017.37 1017.45 1017.77 1017.99 1018.28 1018.89 1018.86 1017.82 1017.45 1017.87 1015.70 1016.00 1016.26 1016.76 1017.15 1017.57 1018.28 1018.68 1018.58 1018.82 1019.06 1019.09 1018.85 1018.45 1018.17 1017.72 1017.30 1016.80 1016.26 1015.61 1014.84 1014.22 1013.52 1012.72 1012.30 1012.12 1011.90 1012.03 1012.17 1012.52
1016.18 1016.74 1017.21 1017.77 1018.07 1018.23 1018.43 1018.80 1019.64 1020.13 1019.44 1018.68 1017.67 1017.16 1015.38 1016.09 1016.84 1017.40 1017.84 1018.21 1018.57 1018.64 1019.05 1019.39 1019.58 1019.56 1019.26 1018.84 1018.45 1017.90 1017.34 1016.83 1016.34 1015.72 1015.09 1014.58 1013.95 1013.04 1012.85 1012.94 1012.82 1013.03 1013.40 1013.38
1016.55 1017.07 1017.82 1018.42 1018.72 1019.05 1019.07 1019.40 1019.91 1020.42 1020.15 1020.05 1017.18 1015.79 1016.02 1016.69 1017.40 1017.94 1018.28 1018.80 1019.09 1019.43 1019.70 1019.92 1019.97 1019.90 1019.55 1019.16 1018.66 1018.13 1017.53 1017.11 1016.53 1015.93 1015.42 1015.01 1014.35 1013.62 1013.70 1013.70 1013.73 1013.83 1013.93 1013.72
1017.22 1017.62 1017.88 1018.99 1019.34 1019.47 1019.49 1019.85 1020.40 1021.05 1020.90 1019.84 1017.17 1016.39 1016.32 1017.32 1018.04 1018.47 1019.08 1019.60 1019.73 1020.01 1020.22 1020.39 1020.27 1020.09 1019.82 1019.36 1018.84 1018.19 1017.81 1017.39 1016.81 1016.27 1015.83 1015.36 1014.63 1014.42 1014.33 1014.46 1014.37 1014.34 1014.28 1014.46
1017.54 1018.28 1018.65 1019.24 1019.76 1019.56 1020.24 1020.27 1020.63 1021.12 1021.14 1021.07 1019.32 1016.65 1016.18 1017.44 1018.45 1019.26 1019.86 1020.15 1020.16 1020.32 1020.55 1020.46 1020.21 1020.25 1019.99 1019.47 1018.93 1018.44 1017.95 1017.51 1017.04 1016.59 1016.11 1015.62 1015.30 1015.15 1014.90 1014.98 1014.84 1014.79 1015.07 1014.80
1018.06 1018.49 1018.93 1019.24 1019.76 1019.94 1020.00 1020.21 1020.36 1021.39 1021.64 1021.38 1020.92 1017.77 1016.31 1017.59 1018.88 1019.46 1019.98 1020.16 1020.17 1020.28 1020.58 1020.44 1020.48 1020.53 1020.23 1019.65 1019.15 1018.73 1018.22 1017.77 1017.33 1016.83 1016.35 1015.92 1015.70 1015.41 1015.47 1015.34 1015.42 1015.62 1015.47 1015.09
1018.55 1018.81 1019.45 1019.72 1020.65 1020.63 1020.93 1020.81 1020.80 1021.41 1021.73 1021.18 1020.92 1017.52 1016.73 1018.15 1019.03 1019.54 1020.12 1020.30 1020.20 1020.49 1020.75 1021.10 1021.05 1020.68 1020.35 1019.91 1019.42 1018.96 1018.54 1018.13 1017.72 1017.25 1016.73 1016.35 1016.06 1016.10 1016.22 1016.28 1016.30 1016.19 1015.91 1015.82
1019.03 1019.35 1019.82 1020.31 1020.37 1020.78 1021.45 1021.13 1021.34 1021.56 1021.92 1020.60 1019.56 1017.67 1016.99 1018.28 1019.16 1019.91 1020.29 1020.38 1020.85 1021.30 1021.20 1021.43 1021.26 1020.82 1020.45 1020.02 1019.50 1019.17 1018.80 1018.46 1018.14 1017.78 1017.39 1017.20 1017.07 1016.97 1016.90 1016.79 1016.67 1016.61 1016.61 1016.53
1019.56 1019.90 1020.18 1020.14 1020.50 1021.08 1021.19 1021.12 1021.36 1021.34 1020.53 1020.67 1019.02 1018.86 1017.42 1018.40 1019.29 1020.12 1020.58 1020.89 1021.28 1021.48 1021.58 1021.53 1021.52 1021.16 1020.60 1020.12 1019.73 1019.38 1019.13 1018.81 1018.49 1018.19 1017.90 1017.79 1017.84 1017.71 1017.64 1017.54 1017.52 1017.57 1017.56 1017.64
1020.03 1020.20 1020.68 1020.57 1020.64 1021.13 1021.35 1020.68 1020.86 1020.91 1020.70 1020.09 1019.33 1018.72 1017.48 1018.28 1019.13 1020.03 1020.75 1021.15 1021.66 1021.56 1022.06 1021.77 1021.75 1021.15 1020.67 1020.25 1020.04 1019.76 1019.61 1019.32 1019.04 1018.83 1018.75 1018.72 1018.70 1018.69 1018.68 1018.63 1018.71 1018.79 1018.96 1019.05
1020.30 1020.80 1021.18 1020.71 1020.37 1020.82 1020.38 1018.61 1019.58 1019.52 1019.07 1018.84 1018.77 1017.32 1017.71 1018.52 1019.41 1019.53 1020.37 1020.86 1021.42 1021.82 1021.96 1021.88 1021.80 1021.30 1020.86 1020.41 1020.20 1020.11 1020.05 1019.92 1019.78 1019.73 1019.75 1019.72 1019.71 1019.68 1019.73 1019.88 1019.97 1020.15 1020.31 1020.37
1020.36 1021.15 1021.33 1020.87 1020.14 1019.60 1017.47 1017.28 1017.63 1017.94 1017.21 1017.10 1016.78 1017.16 1017.80 1018.14 1018.69 1018.98 1019.61 1020.22 1021.29 1021.63 1021.87 1022.08 1021.83 1021.60 1021.22 1020.85 1020.63 1020.54 1020.53 1020.46 1020.48 1020.59 1020.68 1020.73 1020.68 1020.67 1020.78 1020.91 1020.98 1021.03 1021.11 1021.20
1020.67 1021.07 1021.37 1021.31 1020.63 1017.60 1016.35 1016.88 1017.04 1017.07 1015.14 1014.87 1015.59 1016.77 1017.26 1017.95 1018.39 1018.45 1018.89 1019.52 1020.49 1021.15 1021.54 1021.82 1021.96 1021.84 1021.42 1021.15 1020.93 1020.88 1020.85 1020.89 1020.97 1021.23 1021.35 1021.40 1021.44 1021.52 1021.67 1021.72 1021.73 1021.74 1021.83 1021.76
1020.75 1021.00 1021.35 1020.95 1020.37 1017.53 1015.47 1014.57 1014.96 1015.70 1014.85 1013.80 1014.46 1015.73 1016.92 1017.75 1018.20 1017.70 1018.24 1019.12 1020.10 1020.55 1021.11 1021.62 1021.82 1021.70 1021.48 1021.28 1021.08 1021.07 1021.13 1021.22 1021.47 1021.67 1021.77 1021.79 1021.82 1021.90 1022.04 1022.16 1022.20 1022.21 1022.15 1022.10
1020.45 1020.66 1020.69 1020.75 1019.50 1015.99 1014.06 1014.00 1014.63 1014.92 1014.63 1013.24 1013.70 1014.64 1016.02 1016.76 1016.66 1016.48 1017.29 1018.61 1019.24 1019.95 1020.65 1021.14 1021.45 1021.60 1021.34 1021.27 1021.15 1021.33 1021.52 1021.84 1021.91 1022.02 1022.19 1022.29 1022.31 1022.35 1022.50 1022.66 1022.74 1022.73 1022.73 1022.80
1019.08 1019.25 1019.15 1018.95 1018.21 1015.45 1013.30 1014.21 1014.16 1013.12 1012.87 1013.28 1013.46 1013.58 1014.47 1015.19 1016.10 1016.77 1017.41 1018.29 1019.06 1019.67 1020.36 1020.67 1021.13 1021.15 1021.09 1021.10 1021.05 1021.17 1021.46 1021.70 1021.90 1022.12 1022.39 1022.62 1022.67 1022.71 1022.90 1022.99 1022.99 1023.03 1023.14 1023.32
1017.87 1016.78 1016.69 1016.18 1013.74 1011.93 1012.20 1012.03 1011.61 1012.02 1012.53 1012.51 1012.72 1012.91 1013.24 1014.20 1015.35 1016.24 1017.19 1017.91 1018.52 1019.07 1019.56 1019.97 1020.34 1020.57 1020.66 1020.79 1020.85 1021.15 1021.36 1021.69 1022.16 1022.63 1023.01 1023.08 1022.98 1023.09 1023.20 1023.40 1023.61 1023.59 1023.58 1023.65
1016.35 1015.72 1015.53 1014.52 1010.85 1010.84 1011.01 1010.73 1011.06 1011.41 1011.22 1011.26 1011.62 1011.97 1012.64 1012.97 1013.92 1015.21 1016.09 1016.96 1017.60 1018.24 1018.79 1019.27 1019.81 1020.10 1020.35 1020.51 1020.75 1020.88 1021.23 1021.64 1022.39 1022.97 1023.33 1023.49 1023.77 1023.68 1023.57 1023.55 1023.62 1023.84 1023.72 1023.69
1014.50 1014.51 1013.33 1012.19 1010.37 1009.90 1008.60 1009.10 1009.17 1009.90 1010.35 1010.65 1010.84 1011.00 1011.45 1012.48 1013.05 1013.42 1014.46 1015.42 1016.29 1017.12 1017.84 1018.45 1018.97 1019.36 1019.68 1019.96 1020.39 1020.67 1021.07 1021.63 1022.37 1022.75 1023.01 1023.19 1023.34 1023.65 1023.63 1023.50 1023.56 1023.53 1023.33 1023.35
1012.68 1011.04 1011.21 1009.42 1008.26 1008.47 1007.99 1007.90 1008.35 1009.14 1009.57 1009.86 1010.39 1010.64 1010.80 1011.30 1012.05 1012.77 1013.16 1013.69 1014.64 1015.66 1016.60 1017.49 1018.03 1018.60 1018.88 1019.32 1019.96 1020.47 1020.63 1021.26 1022.15 1022.63 1022.92 1023.08 1023.28 1023.45 1023.44 1023.32 1023.08 1022.73 1022.50 1022.37
Thickness
5565 5556 5552 5571 5569 5561 5549 5538 5527 5546 5549 5524 5522 5527 5529 5523 5517 5503 5482 5462 5442 5419 5402 5388 5378 5372 5365 5359 5358 5357 5356 5351 5350 5358 5371 5385 5400 5424 5445 5470 5489 5504 5519 5535
5555 5546 5567 5560 5556 5547 5538 5528 5530 5547 5531 5515 5510 5517 5519 5515 5509 5497 5472 5442 5419 5400 5381 5372 5367 5361 5353 5349 5345 5342 5338 5335 5336 5343 5355 5367 5381 5405 5423 5446 5474 5493 5504 5521
5546 5564 5556 5551 5547 5538 5532 5525 5524 5510 5504 5504 5488 5501 5504 5496 5491 5467 5442 5427 5405 5383 5370 5362 5358 5349 5341 5335 5332 5328 5323 5324 5325 5328 5341 5354 5371 5393 5412 5431 5457 5468 5492 5511
5552 5549 5544 5540 5534 5533 5505 5521 5507 5492 5464 5466 5471 5450 5513 5486 5468 5447 5430 5410 5389 5371 5361 5355 5348 5339 5329 5325 5321 5317 5314 5314 5314 5317 5328 5342 5361 5377 5396 5415 5436 5457 5477 5489
5549 5539 5529 5521 5530 5522 5506 5505 5490 5483 5455 5459 5471 5418 5491 5480 5463 5447 5424 5405 5383 5364 5352 5344 5337 5329 5322 5318 5313 5309 5307 5308 5312 5315 5323 5335 5352 5368 5384 5403 5427 5448 5467 5470
5529 5523 5521 5518 5519 5511 5502 5491 5497 5474 5456 5431 5456 5443 5470 5443 5428 5437 5426 5397 5374 5353 5347 5341 5331 5322 5314 5310 5306 5304 5304 5305 5310 5315 5322 5331 5343 5358 5373 5393 5414 5433 5442 5454
5527 5520 5508 5505 5502 5503 5492 5481 5472 5467 5451 5472 5461 5438 5456 5430 5425 5410 5388 5376 5357 5349 5346 5335 5323 5315 5309 5304 5298 5297 5298 5300 5305 5311 5319 5328 5337 5351 5365 5379 5398 5414 5428 5442
5529 5528 5502 5492 5489 5483 5485 5465 5448 5435 5448 5445 5462 5424 5464 5424 5408 5390 5381 5361 5361 5357 5342 5328 5318 5310 5303 5299 5295 5293 5294 5296 5299 5305 5313 5323 5333 5347 5358 5371 5389 5404 5418 5434
5516 5517 5487 5480 5478 5476 5474 5466 5455 5417 5405 5407 5448 5479 5442 5426 5406 5393 5377 5377 5363 5351 5338 5325 5315 5307 5302 5298 5295 5292 5292 5293 5296 5302 5309 5318 5329 5341 5351 5366 5383 5398 5413 5430
5490 5493 5496 5471 5471 5471 5466 5457 5438 5424 5402 5402 5466 5470 5466 5418 5410 5397 5374 5364 5356 5348 5337 5325 5316 5310 5304 5300 5298 5297 5294 5294 5296 5301 5307 5316 5327 5337 5349 5364 5380 5396 5410 5423
5483 5477 5485 5470 5443 5453 5446 5444 5441 5425 5420 5398 5414 5450 5422 5414 5396 5382 5369 5367 5352 5346 5337 5328 5321 5313 5306 5303 5302 5301 5301 5300 5301 5305 5310 5318 5328 5337 5352 5367 5382 5395 5406 5420
5473 5473 5475 5479 5442 5453 5460 5446 5448 5412 5411 5397 5395 5431 5423 5405 5389 5380 5378 5373 5362 5354 5339 5332 5323 5313 5309 5310 5308 5306 5306 5307 5309 5313 5318 5326 5334 5346 5358 5370 5381 5391 5402 5415
5463 5479 5474 5488 5454 5453 5434 5439 5434 5414 5405 5405 5402 5456 5415 5399 5392 5390 5376 5369 5366 5359 5344 5329 5320 5314 5312 5312 5314 5313 5314 5315 5318 5321 5328 5335 5343 5350 5358 5367 5376 5386 5398 5407
5458 5464 5458 5476 5468 5443 5429 5432 5429 5422 5396 5415 5426 5452 5456 5415 5407 5390 5381 5373 5360 5353 5341 5330 5327 5325 5321 5319 5322 5320 5320 5323 5326 5329 5335 5340 5347 5354 5361 5369 5378 5386 5393 5401
5450 5451 5435 5436 5442 5421 5415 5416 5427 5422 5410 5424 5418 5400 5454 5439 5403 5386 5375 5366 5360 5353 5349 5341 5331 5330 5332 5331 5329 5327 5327 5330 5333 5336 5341 5345 5349 5354 5360 5367 5374 5380 5386 5391
5439 5447 5428 5424 5411 5398 5400 5420 5426 5431 5414 5423 5434 5432 5423 5402 5391 5384 5377 5374 5363 5357 5349 5345 5339 5340 5337 5336 5333 5334 5334 5335 5338 5341 5344 5347 5351 5355 5359 5364 5368 5372 5375 5379
5437 5435 5429 5440 5428 5434 5457 5432 5427 5419 5416 5421 5418 5449 5421 5416 5404 5403 5394 5381 5373 5368 5359 5352 5350 5344 5343 5343 5340 5337 5338 5338 5341 5342 5344 5347 5350 5353 5356 5359 5362 5365 5367 5369
5435 5420 5429 5427 5432 5474 5495 5424 5437 5434 5430 5454 5448 5437 5426 5423 5418 5414 5407 5396 5381 5373 5365 5363 5359 5354 5353 5352 5349 5346 5344 5345 5345 5345 5345 5346 5349 5351 5353 5356 5359 5362 5365 5367
5421 5429 5417 5409 5411 5491 5491 5435 5439 5453 5497 5475 5474 5442 5436 5425 5426 5426 5413 5406 5397 5385 5375 5368 5362 5359 5363 5359 5359 5356 5354 5353 5351 5348 5348 5349 5351 5352 5353 5355 5358 5360 5362 5366
5419 5418 5412 5441 5413 5459 5494 5467 5463 5459 5499 5475 5473 5458 5439 5448 5451 5455 5428 5416 5405 5397 5386 5378 5373 5370 5369 5366 5368 5367 5363 5360 5357 5355 5355 5355 5355 5356 5357 5359 5361 5363 5366 5369
5410 5415 5409 5396 5408 5469 5483 5475 5478 5492 5506 5471 5479 5463 5459 5456 5463 5452 5438 5423 5414 5406 5397 5388 5382 5376 5374 5373 5373 5370 5366 5362 5363 5363 5362 5361 5362 5362 5362 5362 5363 5364 5366 5367
5419 5417 5409 5417 5415 5455 5474 5477 5493 5504 5473 5470 5475 5475 5471 5453 5443 5440 5436 5428 5420 5411 5403 5400 5393 5390 5387 5386 5386 5382 5379 5375 5372 5370 5368 5365 5364 5366 5364 5362 5364 5364 5363 5363
5427 5445 5445 5449 5470 5485 5477 5483 5480 5474 5481 5477 5481 5477 5481 5469 5455 5450 5442 5434 5429 5422 5417 5412 5406 5403 5398 5394 5392 5387 5384 5380 5375 5371 5367 5367 5367 5367 5366 5363 5363 5362 5362 5361
5426 5442 5441 5450 5491 5491 5496 5497 5487 5485 5494 5502 5496 5491 5487 5488 5472 5461 5452 5444 5438 5432 5426 5420 5413 5409 5404 5400 5398 5395 5388 5383 5376 5370 5368 5367 5365 5364 5364 5364 5363 5361 5360 5360
5450 5440 5449 5459 5486 5494 5511 5504 5508 5496 5490 5499 5499 5497 5494 5485 5478 5475 5468 5459 5450 5442 5435 5427 5421 5417 5412 5407 5403 5397 5393 5386 5380 5376 5373 5370 5368 5366 5365 5365 5363 5363 5363 5362
5444 5464 5468 5494 5506 5509 5517 5520 5516 5507 5498 5497 5496 5496 5495 5492 5486 5480 5477 5472 5463 5453 5442 5433 5428 5422 5418 5412 5406 5401 5397 5391 5384 5380 5376 5372 5369 5366 5365 5363 5362 5367 5367 5366